www.pogodaiklimat.ru

Погода и климат >> Архив погоды >> Бельгия >> Spa


ПОГОДА в Spa

  • Прогноз погоды в Spa
  • Монитор погоды в Spa
  • Климат города

АРХИВ ПОГОДЫ в Spa

Время (UTC), дата Ветер
(напр.,м/с)
 
Видим.   Явления Облачность Т
(С)
Тd
(С)
f
(%)
Тe
(С)
Тes
(С)
Комфортность P
(гПа)
Po
(гПа)
Тmin
(С)
Tmax
(С)
R
(мм)
R24
(мм)
S
(см)
01 16.06 Ю 3
{4}
45 км 4/4 1500 м
[]
+12.6 +7.1 69 +11 +11 1017.0 961.1
02 16.06 ЮЗ 2
{4}
45 км 9/9 1500 м
[]
+12.9 +7.8 71 +12 +12 1016.8 961.0
03 16.06 ЮЗ 2
{4}
40 км 8/8 1500 м
[]
+12.8 +8.0 73 +12 +12 1016.6 960.8
04 16.06 Ю 3
{3}
35 км ясно +12.4 +7.9 74 +11 +11 1016.5 960.6
05 16.06 ЮВ 4
{6}
35 км ясно +13.6 +8.6 72 +12 +13 1016.2 960.6
06 16.06 ЮВ 4
{6}
30 км ясно +14.9 +10.1 73 +14 +16 1016.2 960.8 +12.1
07 16.06 Ю 3
{5}
30 км 1/1 1500 м
[]
+16.4 +11.4 72 +16 +20 1015.9 960.9
08 16.06 Ю 2
{6}
30 км 8/8 1380 м
[]
+17.7 +11.3 66 +18 +20 1015.8 961.0
09 16.06 Ю 4
{7}
28 км ясно +19.1 +11.3 61 +20 +29 1015.3 960.8
10 16.06 Ю 4
{7}
28 км 9/9 1500 м
[]
+19.5 +10.7 57 +21 +22 комфорт 1015.3 960.8
11 16.06 З 3
{6}
35 км 10/10 1170 м
[]
+19.0 +10.0 56 +20 +20 1015.4 960.8
12 16.06 З 3
{7}
30 км 10/10 930 м
[]
+18.9 +10.8 59 +20 +20 1015.1 960.6
13 16.06 З 2
{5}
40 км 10/10 960 м
[]
+19.2 +11.9 63 +21 +21 комфорт 1014.6 960.2
14 16.06 З 3
{9}
9000 м слаб. дождь 10/10 90 м
[]
+16.7 +11.0 69 +16 +16 1015.3 960.3
15 16.06 ЮЗ 3
{9}
35 км {дождь, морось} 10/10 1500 м
[]
+18.0 +12.3 69 +18 +18 1014.7 960.0
16 16.06 З 2
{6}
25 км 9/9 870 м
[]
+17.7 +12.4 71 +18 +19 1014.6 959.9
17 16.06 З 4
{8}
27 км {дождь, морось} 5/5 630 м
[]
+18.1 +13.4 74 +18 +19 1014.7 960.0
18 16.06 З 3
{9}
30 км {дождь, морось} 10/10 720 м
[]
+17.0 +11.9 72 +17 +17 1015.5 960.6 +20.4 0.6
19 16.06 З 2
{6}
28 км 1/1 750 м
[]
+15.7 +10.7 72 +16 +16 1016.0 960.8
20 16.06 З 2
{5}
30 км ясно +14.5 +9.5 72 +14 +14 1016.4 961.0
21 16.06 ЮЗ 2
{6}
40 км 1/1 930 м
[]
+13.4 +8.4 72 +13 +13 1017.3 961.6
22 16.06 ЮЗ 3
{4}
35 км ясно +13.4 +8.7 73 +12 +12 1017.2 961.5
23 16.06 ЮЗ 2
{3}
35 км ясно +12.6 +8.2 75 +12 +12 1017.4 961.5
00 17.06 ЮЗ 2
{6}
30 км ясно +11.8 +7.7 76 +11 +11 1017.8 961.7
01 17.06 ЮЗ 1
{3}
30 км 10/10 900 м
[]
+11.8 +7.6 75 +12 +12 1017.8 961.7
02 17.06 Ю 2
{3}
30 км 5/5 1200 м
[]
+10.5 +7.0 79 +9 +9 1018.0 961.6
03 17.06 Ю 2
{3}
35 км 10/10 1000 м
[]
+11.7 +7.7 76 +11 +11 1017.8 961.7
04 17.06 ЮЗ 2
{3}
30 км 10/10 800 м
[]
+12.3 +8.4 77 +11 +11 1017.7 961.8
05 17.06 ЮЗ 2
{4}
30 км 10/10 700 м
[]
+12.0 +8.4 79 +11 +11 1018.2 962.1
06 17.06 ЮЗ 2
{4}
28 км 10/10 540 м
[]
+12.6 +8.7 77 +12 +12 1018.1 962.2 +10.4
07 17.06 З 4
{6}
28 км 10/10 450 м
[]
+13.2 +9.3 77 +12 +12 1018.3 962.5
08 17.06 З 3
{7}
28 км 10/10 480 м
[]
+13.6 +9.2 75 +12 +12 1018.6 962.8
09 17.06 ЮЗ 5
{7}
26 км 10/10 540 м
[]
+14.0 +8.9 71 +12 +12 1018.6 962.9
10 17.06 З 4
{8}
29 км 10/10 630 м
[]
+14.9 +8.9 67 +14 +14 1018.4 962.9
11 17.06 З 5
{9}
30 км 9/9 800 м
[]
+15.4 +9.1 66 +14 +15 1018.5 963.1
12 17.06 З 4
{9}
28 км 9/9 720 м
[]
+14.9 +9.0 68 +14 +15 1018.9 963.3
13 17.06 З 4
{8}
27 км 10/10 600 м
[]
+14.3 +9.0 70 +13 +13 1019.3 963.6
14 17.06 З 4
{7}
30 км 10/10 600 м
[]
+13.2 +8.0 71 +12 +12 1019.9 964.0
15 17.06 З 4
{8}
35 км 10/10 870 м
[]
+14.1 +7.3 64 +13 +13 1020.0 964.2
16 17.06 З 3
{7}
30 км 9/9 840 м
[]
+14.1 +6.7 61 +13 +14 1020.0 964.2
17 17.06 З 3
{6}
40 км 10/10 870 м
[]
+14.2 +7.4 64 +13 +13 1020.1 964.3
18 17.06 З 3
{8}
35 км 9/9 800 м
[]
+14.5 +7.5 63 +14 +14 1020.3 964.6 +16.0
19 17.06 ЮЗ 2
{5}
35 км 10/0 2000 м
[]
+13.6 +7.2 65 +13 +13 1020.3 964.4
20 17.06 ЮЗ 3
{4}
35 км 10/0 2000 м
[]
+13.2 +7.2 67 +12 +12 1020.7 964.7
21 17.06 ЮЗ 3
{5}
40 км 10/0 2000 м
[]
+12.8 +7.3 69 +12 +12 1021.2 965.2
22 17.06 ЮЗ 3
{5}
35 км 9/9 1500 м
[]
+12.6 +7.6 72 +11 +11 1021.3 965.2
23 17.06 ЮЗ 2
{4}
30 км 10/10 1470 м
[]
+12.4 +7.5 72 +12 +12 1021.3 965.1
00 18.06 ЮЗ 3
{5}
30 км 10/10 1260 м
[]
+12.8 +8.2 74 +11 +11 1021.4 965.3
01 18.06 ЮЗ 3
{5}
35 км 10/10 800 м
[]
+12.9 +8.4 74 +12 +12 1021.1 965.0
02 18.06 ЮЗ 3
{6}
30 км 10/10 1000 м
[]
+12.9 +8.3 74 +12 +12 1020.9 964.9
03 18.06 ЮЗ 4
{6}
35 км 10/10 900 м
[]
+12.9 +8.3 74 +11 +11 1020.8 964.8
04 18.06 ЮЗ 3
{6}
40 км 10/10 840 м
[]
+13.0 +8.3 73 +12 +12 1021.2 965.1
05 18.06 ЮЗ 2
{6}
35 км 10/10 300 м
[]
+12.9 +8.4 74 +12 +12 1021.4 965.3
06 18.06 Ю 3
{6}
29 км 10/10 600 м
[]
+13.0 +9.1 77 +12 +12 1021.3 965.3 +12.0
07 18.06 Ю 4
{7}
35 км 10/10 960 м
[]
+14.2 +10.0 76 +13 +13 1021.3 965.5
08 18.06 Ю 4
{7}
30 км 9/9 1080 м
[]
+15.2 +10.6 74 +14 +15 1021.4 965.8
09 18.06 ЮЗ 5
{9}
26 км 10/10 660 м
[]
+17.2 +11.0 67 +17 +17 1021.2 966.0
10 18.06 ЮЗ 5
{10}
40 км 10/10 720 м
[]
+16.9 +10.7 67 +16 +16 1021.3 966.1
11 18.06 ЮЗ 5
{9}
30 км 10/10 660 м
[]
+17.4 +11.3 67 +17 +17 1021.2 966.1
12 18.06 ЮЗ 4
{10}
35 км 10/10 660 м
[]
+17.4 +11.4 68 +17 +17 1021.5 966.3
13 18.06 ЮЗ 4
{9}
40 км 10/10 660 м
[]
+17.8 +12.1 69 +18 +18 1021.4 966.4
14 18.06 ЮЗ 5
{8}
30 км 10/10 600 м
[]
+18.0 +12.3 69 +18 +18 1021.6 966.6
15 18.06 З 4
{9}
40 км 10/10 720 м
[]
+18.4 +12.5 68 +19 +19 1021.2 966.3
16 18.06 З 4
{9}
40 км 10/10 700 м
[]
+18.4 +12.5 68 +19 +19 1021.1 966.2
17 18.06 З 4
{8}
45 км 9/9 750 м
[]
+19.4 +12.9 66 +21 +21 комфорт 1020.7 966.0
18 18.06 ЮЗ 4
{9}
40 км 9/9 1260 м
[]
+18.7 +12.6 68 +19 +19 1020.8 966.0 +19.4
19 18.06 ЮЗ 3
{7}
35 км 9/9 700 м
[]
+18.1 +12.4 69 +18 +18 1021.3 966.3
20 18.06 ЮЗ 2
{6}
45 км 9/9 660 м
[]
+16.7 +11.5 71 +17 +17 1021.8 966.5
21 18.06 З 2
{7}
45 км 9/9 540 м
[]
+16.1 +11.6 75 +16 +16 1022.4 966.9
22 18.06 З 3
{6}
40 км 1/1 800 м
[]
+15.3 +11.9 80 +15 +15 1022.8 967.2
23 18.06 З 3
{6}
30 км ясно +14.4 +11.0 80 +13 +13 1023.1 967.3
00 19.06 З 3
{7}
29 км ясно +13.7 +12.0 89 +12 +12 1023.4 967.5
01 19.06 З 3
{6}
28 км ясно +13.4 +10.3 81 +12 +12 1023.5 967.4
02 19.06 З 3
{7}
40 км 10/10 720 м
[]
+13.8 +11.9 88 +13 +13 1023.4 967.4
03 19.06 ЮЗ 3
{7}
35 км 10/10 300 м
[]
+13.6 +10.4 81 +12 +12 1023.5 967.5
04 19.06 З 3
{6}
20 км 10/10 120 м
[]
+13.2 +11.9 92 +12 +12 1024.1 968.0
05 19.06 З 3
{5}
13 км 10/10 90 м
[]
+13.3 +11.8 91 +12 +12 1024.4 968.4
06 19.06 З 2
{7}
11 км 10/10 90 м
[]
+13.6 +11.9 89 +13 +13 1024.5 968.5 +13.1
07 19.06 З 2
{5}
21 км 10/10 150 м
[]
+14.6 +11.5 82 +14 +14 1024.5 968.7
08 19.06 З 3
{5}
30 км 10/10 240 м
[]
+15.6 +13.6 88 +15 +15 1024.5 968.9
09 19.06 З 4
{7}
3400 м дымка 10/10 90 м
[]
+14.9 +13.5 91 +14 +14 1024.9 969.2
10 19.06 З 4
{7}
4200 м слаб. морось {дымка} 10/10 120 м
[]
+15.1 +13.7 91 +14 +14 1025.2 969.4
11 19.06 З 2
{6}
35 км 10/10 270 м
[]
+16.5 +12.8 79 +17 +17 1025.1 969.6
12 19.06 З 2
{7}
н/о 10/10 120 м
[]
+15.6 +12.9 84 +15 +15 1025.4 969.7
13 19.06 З 3
{5}
17 км {дождь, дымка} 10/10 210 м
[]
+16.2 +14.8 91 +16 +16 1025.4 969.8
14 19.06 З 3
{5}
н/о 10/10 120 м
[]
+16.2 +13.3 83 +16 +16 1025.4 969.8
15 19.06 З 2
{5}
35 км {дождь, дымка} 10/10 360 м
[]
+16.8 +13.6 81 +17 +17 1025.3 969.8
16 19.06 СЗ 2
{4}
40 км 10/10 330 м
[]
+17.8 +14.0 78 +18 +18 1024.8 969.5
17 19.06 З 1
{4}
40 км 10/10 800 м
[]
+17.3 +13.6 79 +18 +18 1024.7 969.4
18 19.06 СЗ 1
{5}
40 км {дождь, дымка} 10/10 750 м
[]
+17.2 +14.0 81 +18 +18 1024.5 969.2 +17.8 0.0
19 19.06 З 1
{1}
35 км 10/10 420 м
[]
+16.9 +13.6 81 +18 +18 1024.5 969.1
20 19.06 ЮЗ 1
{2}
40 км 10/10 750 м
[]
+16.7 +13.2 80 +18 +18 1024.5 969.1
21 19.06 ЮЗ 1
{2}
40 км 10/10 600 м
[]
+16.5 +13.3 81 +17 +17 1024.9 969.4
22 19.06 ЮЗ 1
{2}
35 км 9/9 240 м
[]
+16.2 +13.0 81 +17 +17 1024.8 969.3
23 19.06 З 2
{4}
30 км 10/10 330 м
[]
+16.0 +15.0 94 +16 +16 1024.8 969.3
00 20.06 ЮЗ 2
{4}
35 км 10/10 210 м
[]
+15.8 +12.3 80 +16 +16 1024.6 969.0
01 20.06 ЮЗ 1
{2}
35 км 10/10 540 м
[]
+15.6 +12.2 80 +16 +16 1024.3 968.6
02 20.06 Ю 2
{2}
45 км 10/10 540 м
[]
+15.6 +12.5 82 +15 +15 1023.9 968.3
03 20.06 Ю 2
{3}
45 км 10/10 500 м
[]
+15.6 +13.9 90 +15 +15 1023.6 968.1
04 20.06 Ю 2
{3}
40 км 4/4 570 м
[]
+14.8 +14.3 97 +14 +14 1023.4 967.7
05 20.06 ЮЗ 1
{3}
40 км ясно +15.3 +11.8 80 +16 +17 1023.2 967.5
06 20.06 Ю 2
{3}
40 км ясно +17.3 +14.0 81 +18 +21 1022.8 967.6 +14.4
07 20.06 Ю 2
{5}
40 км ясно +17.8 +13.2 74 +18 +24 1022.7 967.6
08 20.06 Ю 4
{6}
30 км ясно +19.1 +13.5 70 +20 +27 1022.4 967.6
09 20.06 Ю 3
{6}
19 км 1/1 800 м
[]
+20.6 +13.6 64 +23 +33 комфорт 1021.9 967.4
10 20.06 З 3
{5}
22 км 5/5 870 м
[]
+20.8 +13.8 64 +24 +30 комфорт 1021.8 967.2
11 20.06 З 3
{6}
29 км 9/9 1020 м
[]
+21.4 +13.4 60 +24 +25 комфорт 1021.4 967.0
12 20.06 СЗ 2
{6}
40 км 9/9 1110 м
[]
+22.3 +13.9 59 +25 +27 комфорт 1020.7 966.5
13 20.06 СЗ 2
{6}
40 км 6/6 1170 м
[]
+22.9 +13.4 55 +26 +33 жарко 1020.2 966.2
14 20.06 СЗ 3
{7}
30 км 3/3 1380 м
[]
+24.0 +12.7 49 +26 +34 жарко 1019.6 965.7
15 20.06 нст 2
{7}
30 км ясно +24.0 +12.6 49 +26 +36 жарко 1019.3 965.4
16 20.06 СЗ 4
{6}
35 км 1/1 1380 м
[]
+24.2 +13.0 50 +26 +30 жарко 1018.8 965.0
17 20.06 СЗ 3
{6}
40 км ясно +24.1 +12.9 50 +26 +29 жарко 1018.4 964.6
18 20.06 З 3
{7}
40 км ясно +23.5 +12.3 49 +25 +26 комфорт 1018.2 964.3 +24.8
19 20.06 З 2
{5}
40 км 3/3 1500 м
[]
+22.4 +11.9 51 +25 +25 комфорт 1018.1 964.0
20 20.06 З 2
{4}
45 км ясно +20.3 +11.5 57 +23 +23 комфорт 1018.5 964.1
21 20.06 З 2
{5}
45 км ясно +18.9 +11.1 61 +20 +20 1019.1 964.3
22 20.06 З 2
{3}
40 км ясно +18.1 +11.0 63 +19 +19 1019.0 964.1
23 20.06 ЮЗ 2
{3}
30 км ясно +17.1 +10.8 66 +17 +17 1018.7 963.6
00 21.06 ЮЗ 2
{5}
25 км ясно +16.3 +10.7 69 +16 +16 1018.5 963.2
01 21.06 ЮЗ 2
{4}
20 км ясно +16.3 +11.2 72 +16 +16 1018.3 963.1
02 21.06 ЮЗ 2
{5}
23 км ясно +15.1 +10.6 74 +15 +15 1017.8 962.4
03 21.06 ЮЗ 4
{6}
35 км ясно +15.4 +10.8 74 +14 +14 1017.0 961.7
04 21.06 З 4
{7}
29 км 10/10 300 м
[]
+14.8 +12.6 87 +14 +14 1017.1 961.7
05 21.06 З 3
{6}
9000 м 10/10 120 м
[]
+14.2 +11.8 85 +13 +13 1017.2 961.7
06 21.06 З 4
{7}
н/о 10/10 90 м
[]
+13.8 +12.5 92 +12 +12 1017.4 961.8 +13.8
07 21.06 З 4
{7}
1500 м слаб. дождь {морось, дымка} 10/10 30 м
[]
+13.2 +12.6 96 +11 +11 1017.7 962.0
08 21.06 З 4
{9}
н/о 10/10 30 м
[]
+13.1 +11.9 92 +11 +11 1018.7 962.9
09 21.06 СЗ 5
{10}
10 км в посл. час туман {дождь, дымка} 10/10 180 м
[]
+13.0 +11.5 91 +11 +11 1019.4 963.5
10 21.06 СЗ 5
{11}
27 км 8/8 480 м
[]
+13.8 +10.4 80 +12 +14 1020.0 964.2
11 21.06 СЗ 6
{11}
25 км 9/9 840 м
[]
+13.0 +6.3 64 +11 +11 1021.0 964.9
12 21.06 СЗ 6
{11}
30 км {дождь, туман} ясно +14.1 +4.6 53 +12 +19 1021.2 965.3 1
13 21.06 СЗ 6
{11}
29 км ясно +14.9 +4.7 50 +13 +20 1021.2 965.5
14 21.06 СЗ 6
{11}
28 км 6/6 1260 м
[]
+14.8 +5.6 54 +13 +15 1021.7 966.0
15 21.06 С 6
{11}
30 км 10/10 1170 м
[]
+13.2 +4.3 55 +11 +11 1022.6 966.5
16 21.06 СЗ 6
{12}
30 км 8/8 1410 м
[]
+12.3 +2.9 53 +10 +10 1023.6 967.3
17 21.06 СЗ 6
{11}
30 км 10/10 1170 м
[]
+11.2 +3.1 57 +8 +8 1024.4 967.8
18 21.06 С 5
{12}
30 км 5/5 1500 м
[]
+11.7 +3.3 56 +9 +10 1024.5 968.0 +15.7 1
19 21.06 СЗ 5
{10}
35 км 5/5 900 м
[]
+10.3 +3.8 64 +8 +8 1025.1 968.3
20 21.06 СЗ 5
{9}
29 км 10/10 750 м
[]
+9.9 +4.8 71 +7 +7 1025.5 968.6
21 21.06 СЗ 4
{10}
23 км ясно +8.3 +4.4 76 +5 +5 1026.4 969.1
22 21.06 СЗ 4
{7}
22 км ясно +7.7 +4.4 80 +4 +4 1026.8 969.3
23 21.06 СЗ 4
{8}
18 км 10/10 450 м
[]
+7.5 +5.1 85 +4 +4 1027.0 969.6
00 22.06 СЗ 2
{10}
16 км ясно +6.3 +4.5 88 +4 +4 1027.0 969.3
01 22.06 СЗ 2
{4}
15 км ясно +5.8 +3.9 88 +3 +3 1026.9 969.1
02 22.06 З 2
{4}
15 км 6/6 800 м
[]
+5.8 +3.6 86 +3 +3 1026.9 969.1
03 22.06 З 3
{5}
19 км 10/10 700 м
[]
+6.3 +3.7 83 +3 +3 1026.8 969.1
04 22.06 З 2
{5}
17 км ясно +5.7 +4.2 90 +3 +3 1026.8 969.0
05 22.06 З 3
{4}
18 км ясно +6.3 +3.5 82 +3 +4 1027.0 969.3
06 22.06 СЗ 4
{7}
25 км 1/1 360 м
[]
+7.8 +5.2 84 +4 +6 1026.9 969.5 +5.5
07 22.06 СЗ 5
{8}
26 км 10/10 540 м
[]
+9.2 +5.8 79 +6 +6 1026.8 969.7
08 22.06 СЗ 5
{10}
35 км 9/9 540 м
[]
+9.7 +5.7 76 +7 +7 1026.7 969.7
09 22.06 СЗ 5
{10}
29 км 10/10 750 м
[]
+10.6 +5.2 69 +8 +8 1026.9 970.0
10 22.06 СЗ 6
{11}
30 км 10/10 960 м
[]
+10.7 +3.7 62 +8 +8 1027.2 970.4
11 22.06 С 5
{11}
27 км 10/10 1000 м
[]
+12.0 +4.4 60 +10 +10 1026.9 970.3
12 22.06 СЗ 5
{11}
22 км 10/10 1080 м
[]
+12.1 +5.1 62 +10 +10 1027.1 970.5
13 22.06 СЗ 4
{11}
27 км 1/1 1140 м
[]
+13.9 +6.6 61 +13 +22 1026.7 970.5
14 22.06 СЗ 5
{11}
19 км 10/10 800 м
[]
+12.0 +5.9 66 +10 +10 1027.2 970.6
15 22.06 С 5
{11}
26 км 9/9 720 м
[]
+11.9 +6.3 69 +10 +10 1027.5 970.9
16 22.06 СЗ 5
{9}
21 км 10/10 700 м
[]
+11.9 +6.8 71 +10 +10 1027.7 971.1
17 22.06 С 5
{9}
18 км 9/9 700 м
[]
+12.0 +6.7 70 +10 +10 1027.7 971.1
18 22.06 СЗ 3
{11}
15 км слаб. морось 10/10 570 м
[]
+11.0 +6.8 75 +9 +9 1027.8 971.0 +13.9
19 22.06 СЗ 4
{7}
20 км 9/9 570 м
[]
+10.8 +6.9 77 +8 +8 1028.0 971.2
20 22.06 СЗ 3
{7}
20 км 10/10 500 м
[]
+10.3 +6.8 79 +8 +8 1028.1 971.2
21 22.06 СЗ 3
{7}
19 км 10/10 400 м
[]
+9.8 +7.1 83 +8 +8 1028.7 971.6
22 22.06 СЗ 3
{6}
14 км 10/10 400 м
[]
+9.3 +6.6 83 +7 +7 1028.9 971.8
23 22.06 СЗ 3
{6}
12 км 10/10 240 м
[]
+8.8 +7.0 88 +6 +6 1029.0 971.7
00 23.06 СЗ 2
{7}
9000 м 10/10 210 м
[]
+8.1 +6.6 90 +6 +6 1028.8 971.4
01 23.06 СЗ 3
{5}
н/о 10/10 120 м
[]
+7.9 +6.7 92 +5 +5 1028.7 971.3

 

Местоположение метеостанции Spa (Бельгия): широта 50.48 долгота 5.92 высота над уровнем моря 482 м.

В архиве по умолчанию представлена погода в Spa за последнюю неделю. Архивные данные за месяц целиком и за предыдущие месяцы, начиная с января 2011 года, Вы можете получить, выбрав интересующий диапазон дат из раскрывающегося списка и нажав кнопку "Ввод!".


*Определитесь, кто Вы:
робот инопланетянин человек

Внимание! Время в таблицах - всемирное. Для получения местного времени необходимо прибавить поправку, которая в Spa равна 1 ч.

Смотрите также архив погоды в соседних городах и на ближайших метеорологических станциях:

Погода в Mont-Rigi (Бельгия) (12 км)
Погода в Elsenborn (Бельгия) (18 км)
Погода в Aachen-Orsbach (Германия) (34 км)
Погода в Bierset (Бельгия) (38 км)
Погода в Maastricht (Нидерланды) (50 км)
Погода в Geilenkirchen (Германия) (55 км)
Погода в Humain (Бельгия) (57 км)
Погода в Diepenbeek (Бельгия) (59 км)
Погода в Saint Hubert (Бельгия) (62 км)
Погода в Noervenich (Германия) (66 км)

Пояснения к столбцам:

Ветер - указаны скорость ветра в м/с - средняя за 10 мин, порывы в срок и между сроками (в фигурных скобках) и направление, откуда дует ветер: С - северный, СВ - северо-восточный, В - восточный, ЮВ - юго-восточный, Ю - южный, ЮЗ - юго-западный, З - западный, СЗ - северо-западный.
Видимость - горизонтальная дальность видимости в метрах или километрах. При видимости от 1 до 10 км при отсутствии осадков обычно наблюдается дымка, при ухудшении видимости до 1 км и менее - туман. В сухую погоду видимость может ухудшаться дымом, пылью или мглою.
Явления - указаны атмосферные явления, наблюдавшиеся в срок или в последний час перед сроком; фигурными скобками обозначены явления, наблюдавшиеся между сроками (за 1-3 часа до срока); квадратными скобками обозначены град или гололедные отложения с указанием их диаметра в мм.
Облачность - указаны через наклонную черту общая и нижняя облачность в баллах и высота нижней границы облаков в метрах; квадратными скобками обозначены формы облаков: Ci - перистые, Cs - перисто-слоистые, Cc - перисто-кучевые, Ac - высококучевые, As - высокослоистые, Sc - слоисто-кучевые, Ns - слоисто-дождевые, Cu - кучевые, Cb - кучево-дождевые. Подробнее классификацию облаков см. в Атласе облаков (PDF).
T - Температура воздуха - температура, измеренная на высоте 2 м над землей.
Td - Температура точки росы - температура, при понижении до которой содержащийся в воздухе водяной пар достигнет насыщения.
f - Относительная влажность воздуха - влажноcть воздуха, измеренная на высоте 2 м над землей.
Te - Эффективная температура - температура, которую ощущает одетый по сезону человек в тени. Характеристика душности погоды. При расчете учитывается влияние влажности воздуха и скорости ветра на теплоощущения человека.
Tes - Эффективная температура на солнце - температура, которую ощущает человек, с поправкой на солнечный нагрев. Характеристика знойности погоды. Зависит от высоты солнца над горизонтом, облачности и скорости ветра. Ночью, в пасмурную погоду, а также при ветре 12 м/с и более поправка равна нулю.
P - Атмосферное давление - приведенное к уровню моря атмосферное давление.
Po - Атмосферное давление - измеренное на уровне метеостанции атмосферное давление.
Tmin - Минимальная температура - минимум температуры воздуха на высоте 2 м над землей.
Tmax - Максимальная температура - максимум температуры воздуха на высоте 2 м над землей.
R - Количество осадков - Количество выпавших осадков за период времени, мм. При наведении курсора мыши на число - период времени, за который выпало указанное количество осадков.
R24 - Количество осадков - Количество выпавших осадков за 24 часа, мм.
S - Снежный покров - Высота снежного покрова, см. При наведении курсора мыши на число - состояние снежного покрова и степень покрытия местности в баллах.